Location: Aldenham
(51.6667°N, 0.3500°W)
Time: 17:38:01
(UTC+00:00)

Meteor 1-28 Rocket - Pass Details

Date: 18 November 2025
Orbit: 433 x 442 km, 97.6° (Epoch: 10 December)

Event Time Altitude Azimuth Distance (km) Brightness Sun altitude
Rises 16:59:29 0° 14° (NNE) 2,461 6.3 -8.1°
Reaches altitude 10° 17:01:32 10° 15° (NNE) 1,585 5.3 -8.4°
Maximum altitude 17:04:55 82° 102° (ESE) 459 2.8 -8.9°
Drops below altitude 10° 17:08:18 10° 192° (SSW) 1,572 6.1 -9.4°
Sets 17:10:19 0° 193° (SSW) 2,438 7.1 -9.7°
